User: anonymous   Login
Location: Kunchanapalle
(16.4623°N, 80.6176°E)
Time: 12:55:20
(UTC+00:00)
Language:

deb Kosmos-1763 - Orbit

View from above orbital plane
View from above orbital plane
View from above satellite
View from above satellite

Ground track
Ground track

The orbit data is extracted from the following two-line orbital elements,

1 16865U 86052C   20294.50957050 +.00009483 +00000-0 +30668-3 0  9995
2 16865 073.9985 105.8013 0008765 135.2667 224.9245 15.32128485841485
Epoch (UTC): 20 October 2020 12:13:46
Eccentricity: 0.0008765
inclination: 73.9985°
perigee height: 463 km
apogee height: 475 km
right ascension of ascending node: 105.8013°
argument of perigee: 135.2667°
revolutions per day: 15.32128485
mean anomaly at epoch: 224.9245°
orbit number at epoch: 84148

The dashed part of the orbit path shows where the satellite is in the earth's shadow,  

DLR